Location: Bully
(50.4438°N, 2.7270°E)
Time: 19:02:07
(UTC+00:00)

Daily predictions for brighter satellites

Satellite Brightness Start Highest point End
(mag) Time Altitude Azimuth Time Altitude Azimuth Time Altitude Azimuth
Cosmos 2297 Rocket 2.8 17:16:42 10° NNW 17:22:20 66° WSW 17:27:55 10° SSE
MOS 1-B 4.4 17:18:02 10° SSE 17:23:49 81° ENE 17:29:39 10° NNW
Cosmos 1980 Rocket 3.4 17:20:06 10° SSE 17:24:16 22° E 17:28:27 10° NE
Cosmos 2263 Rocket 3.1 17:19:37 10° NNW 17:24:29 29° NE 17:29:19 10° ESE
Cosmos 389 Rocket 3.7 17:23:23 10° SE 17:25:59 21° E 17:28:36 10° NE
Cosmos 2218 Rocket 4.0 17:20:44 10° S 17:26:56 68° E 17:33:15 10° NNE
Meteor 1-22 Rocket 4.5 17:25:03 10° S 17:31:04 89° WNW 17:37:14 10° NNE
Cosmos 1656 3.6 17:27:11 10° SSW 17:32:43 81° ESE 17:38:12 10° NNE
SL-8 Rocket 4.1 17:26:37 10° S 17:32:57 86° E 17:39:18 10° N
X-37B 3.0 17:31:58 10° S 17:33:27 13° SSE 17:34:56 10° SE
Genesis I 3.3 17:30:29 10° NW 17:34:35 71° NE 17:38:40 10° SE
deb Chang Zheng 4 3.5 17:32:16 10° SSE 17:36:28 88° ENE 17:40:43 10° NNW
ARGOS 3.4 17:32:15 10° SE 17:37:27 51° ENE 17:42:41 10° N
Cosmos 405 2.9 17:36:36 10° S 17:40:02 90° ENE 17:43:30 10° NNE
SME Rocket 3.9 17:37:37 10° N 17:41:22 57° WNW 17:46:00 10° SSW
Cosmos 1697 Rocket 2.9 17:37:02 10° S 17:42:30 52° ESE 17:47:59 10° NE
Cosmos 1125 Rocket 4.0 17:37:55 10° S 17:42:45 38° ESE 17:47:34 10° NE
Cosmos 1607 4.0 17:39:53 10° NW 17:46:15 74° NE 17:52:27 10° SE
Cosmos 1908 4.0 17:43:02 10° SSE 17:46:28 31° E 17:49:55 10° NNE
Cosmos 1356 3.4 17:43:38 10° NNW 17:47:03 84° W 17:50:26 10° S
Cosmos 2098 4.5 17:45:17 10° SSE 17:48:08 42° E 17:51:07 10° NNE
Cosmos 2227 Rocket 3.0 17:43:11 10° NW 17:48:45 57° WSW 17:54:16 10° S
Iridium 4 Rocket 4.0 17:47:00 10° NNE 17:50:44 27° ENE 17:54:39 10° SE
Cosmos 494 Rocket 4.0 17:46:35 10° NNW 17:51:51 86° ENE 17:57:03 10° SSE
Landsat 5 3.7 17:48:17 10° NNE 17:52:30 53° E 17:56:49 10° S
SJ-11-01 4.2 17:47:59 10° SSE 17:52:37 66° ENE 17:57:18 10° N
Gbstr 26 Del rocket 4.4 17:47:06 10° WNW 17:54:04 88° NNE 18:01:28 13° ESE
MOS 1-B Rocket 4.4 17:47:24 10° NNE 17:54:28 53° E 18:00:30 10° S
CZ-2C R/B 2.9 17:49:15 10° NNE 17:54:46 53° E 18:00:12 10° S
SKYMED 2 3.6 17:51:10 10° NNE 17:55:29 61° ESE 17:59:47 10° S
Cosmos 2344 4.5 17:48:46 10° NW 17:56:44 47° NNE 18:05:54 14° E
Cosmos 1726 3.6 17:55:59 10° SW 17:59:23 39° WNW 18:02:49 10° N
Cosmos 1844 Rocket 4.3 17:56:11 10° N 17:59:55 18° NNE 18:02:41 13° ENE
USA 215 3.7 17:54:56 10° ENE 18:01:19 58° NNW 18:07:43 10° W
Cosmos 1470 3.8 17:57:30 10° SSW 18:01:22 50° WNW 18:05:16 10° N
Okean O Rocket 1.7 17:58:53 10° SSE 18:03:14 79° WSW 18:07:36 10° NNW
Cosmos 2084 Rocket 3.2 17:59:34 10° SW 18:03:27 82° NW 18:07:23 10° NE
Cosmos 2123 Rocket 4.3 17:59:23 10° N 18:05:28 45° ENE 18:11:30 10° SE
Meteor 1-16 Rocket 4.5 18:00:29 10° SSE 18:06:10 51° E 18:11:48 10° NNE
Cosmos 1703 3.3 18:03:10 10° N 18:07:05 56° ENE 18:10:56 10° SSE
Cosmos 1758 3.5 18:04:14 10° SSW 18:08:13 73° W 18:12:12 10° N
CZ-4 R/B 1.4 18:05:34 10° SSE 18:09:25 53° ENE 18:13:23 10° N
YAOGAN 1 2.6 18:05:59 10° SSE 18:10:13 56° ENE 18:14:28 10° N
SL-16 R/B 4.1 18:08:25 10° SE 18:08:50 11° SE 18:08:50 11° SE
Okean-O 3.2 18:07:54 10° SE 18:11:57 36° ENE 18:16:01 10° N
Cosmos 2082 4.0 18:08:23 10° NNW 18:13:59 70° WSW 18:19:34 10° SSE
Cosmos 1455 Rocket 3.4 18:10:36 10° SSE 18:14:46 43° E 18:18:59 10° NNE
Spot 2 3.9 18:14:22 10° SSE 18:18:26 90° SW 18:22:41 10° NNW
H-2A R/B 2.6 18:14:57 10° NNE 18:18:41 32° E 18:22:24 10° SSE
Cosmos 1953 2.3 18:14:51 10° S 18:18:50 62° E 18:22:53 10° NNE
Cosmos 1727 Rocket 4.4 18:13:14 10° NNW 18:19:24 66° W 18:25:31 10° S
Okean 1-7 Rocket 3.9 18:16:13 10° N 18:20:26 43° ENE 18:24:34 10° SSE
Cosmos 1328 4.0 18:17:37 10° N 18:21:31 46° ENE 18:25:11 11° SSE
Cosmos 2150 Rocket 4.0 18:16:48 10° SSW 18:22:15 85° ESE 18:27:41 10° NNE
Meteor 1-21 Rocket 4.3 18:16:39 10° NNW 18:22:31 88° WSW 18:28:25 10° S
Cosmos 1544 Rocket 4.1 18:23:58 10° SSE 18:28:01 35° E 18:32:07 10° NNE
H-2A R/B 3.5 18:27:32 10° SSW 18:32:34 42° W 18:37:43 10° NNW
ATLAS 3B R/B 2.7 18:28:51 10° SW 18:35:27 80° NW 18:42:24 10° NE
Lacrosse 4 Rocket 2.7 18:32:03 10° NNW 18:35:32 24° NE 18:36:04 23° NE
SeaSat 1 4.5 18:34:25 12° NE 18:35:34 13° NNE 18:37:34 10° N
Cosmos 1300 4.2 18:32:37 10° SSE 18:38:01 22° NE 18:39:39 10° NNE
Cosmos 405 Rocket 2.7 18:32:47 10° NNW 18:36:43 86° WSW 18:40:42 10° S
OBJECT-B 2.7 18:39:30 18° NNE 18:39:30 18° NNE 18:40:38 10° N
COSMO-SKYMED 1 3.6 18:39:23 10° N 18:43:34 47° WNW 18:47:44 10° SW
OPS 6432 4.2 18:41:45 10° NW 18:44:42 74° SW 18:45:27 48° SSE
ATLAS 5 CENTAUR R/B 1.7 18:41:49 10° SSW 18:45:31 42° ESE 18:45:39 41° ESE
Cosmos 1602 Rocket 3.9 18:44:37 10° N 18:48:48 41° ENE 18:48:52 41° ENE
Cosmos 2227 4.1 18:45:41 10° NNW 18:51:29 81° ENE 18:55:04 24° SE
CZ-4C R/B 4.4 18:48:44 10° N 18:52:00 39° WNW 18:55:10 10° SW
Cosmos 2369 3.9 18:47:52 10° SW 18:53:32 74° WNW 18:59:15 10° NNE
HJ-1C 4.0 18:51:07 12° S 18:53:59 54° W 18:57:11 10° NNW
IRS-1C Rocket 4.2 18:52:19 10° SSE 18:57:34 77° WSW 19:02:52 10° NNW
H-2A R/B 3.9 18:54:19 10° S 18:58:27 40° W 19:02:29 10° NNW
Cosmos 1605 Rocket 4.0 18:52:34 10° SSE 18:58:36 55° E 19:04:45 10° NNE
In-Cosmos 22 Rocket 4.3 18:53:39 10° N 18:58:51 47° ENE 18:59:43 43° E
CENTAUR R/B 4.2 18:54:27 10° WNW 19:00:31 31° N 19:06:08 15° NE
USA 186 3.9 19:04:38 19° N 19:04:38 19° N 19:05:39 10° N
Cosmos 1174 3.6 18:59:58 10° SW 19:03:07 57° NW 19:03:07 57° NW
Cosmos 1535 Rocket 4.4 18:57:06 10° S 19:03:19 78° E 19:09:40 10° NNE
Cosmos 1447 Rocket 4.5 18:59:37 10° N 19:05:42 57° ENE 19:07:59 37° SE
Cosmos 1980 Rocket 2.3 19:02:00 10° SW 19:07:40 75° WNW 19:13:24 10° NNE
Cosmos 2263 Rocket 2.5 19:03:19 10° NW 19:08:51 64° WSW 19:12:46 19° S
Meteor 2-10 Rocket 3.8 19:09:28 48° E 19:09:28 48° E 19:14:34 10° NNE
X-37B 2.7 19:06:42 10° SW 19:08:08 20° SSW 19:08:08 20° SSW
Cosmos 1269 Rocket 4.4 19:05:29 10° NNW 19:10:45 64° WSW 19:14:31 19° S
CSL-04 Debris 4.2 19:08:41 15° S 19:13:16 78° WSW 19:18:42 10° NNW
Cosmos 1758 Rocket 4.4 19:12:45 10° N 19:15:32 35° NNE 19:15:32 35° NNE
SJ-6B 3.8 19:21:19 37° N 19:21:19 37° N 19:23:47 10° N
Cosmos 1892 4.4 19:20:02 10° N 19:21:40 24° N 19:21:40 24° N
Cosmos 614 Rocket 4.1 19:19:26 10° NNW 19:24:04 54° NE 19:24:04 54° NE
Cosmos 2251 Rocket 3.7 19:19:35 10° NNW 19:24:31 54° NE 19:24:31 54° NE
Cosmos 1697 Rocket 4.2 19:21:33 10° WSW 19:26:43 35° NW 19:31:53 10° NNE
Cosmos 1626 Rocket 3.9 19:22:51 10° NNW 19:27:08 61° W 19:28:11 45° SSW
CSL-04 Rocket 4.2 19:30:11 19° S 19:34:06 60° WSW 19:39:37 10° NNW
Cosmos 2278 4.2 19:31:43 10° SW 19:37:20 60° NW 19:43:00 10° NNE
Ariane Rocket 3.7 19:41:05 42° NNE 19:41:05 42° NNE 19:44:42 10° N
Orbus 7S? 3.9 19:33:15 10° WNW 19:41:54 87° SSW 19:41:55 87° SSW
USA 215 3.7 19:42:02 41° NE 19:43:50 52° N 19:50:08 10° WNW
CZ-4 R/B 4.2 19:42:08 10° SW 19:44:46 17° W 19:47:25 10° NW
Cosmos 1844 Rocket 2.8 19:39:24 10° NNW 19:44:21 58° NNE 19:44:21 58° NNE
Cosmos 2278 Rocket 4.0 19:43:16 10° N 19:46:37 19° NNE 19:46:37 19° NNE
Okean-O 4.4 19:45:17 14° SSW 19:48:29 29° W 19:52:23 10° NW
SL-16 R/B 3.8 19:48:51 10° SSW 19:50:51 23° SSW 19:50:51 23° SSW
H-2A R/B 3.8 19:51:03 10° N 19:54:36 29° WNW 19:58:10 10° SW
Resurs 01 Rocket 3.7 20:03:55 20° N 20:03:55 20° N 20:05:20 10° N
IRS-1A Rocket 4.4 20:05:06 76° NNW 20:05:06 76° NNW 20:10:31 10° NNW
OBJECT-B 4.3 20:12:23 10° NW 20:12:23 10° NW 20:12:24 10° NW
Cosmos 1844 4.2 20:05:30 10° NNW 20:10:05 57° NNW 20:10:05 57° NNW
SeaSat 1 4.1 20:14:12 26° N 20:14:12 26° N 20:16:34 10° NNW
Cosmos 2344 4.3 20:03:09 10° NW 20:12:07 77° SW 20:15:56 48° SSE
Lacrosse 4 Rocket 3.4 20:10:19 10° NW 20:12:21 27° NW 20:12:21 27° NW
ATLAS 3B R/B 4.0 20:21:08 10° W 20:27:08 33° NNW 20:30:33 22° NNE
ATLAS 5 CENTAUR R/B 4.1 20:26:21 10° W 20:27:13 15° W 20:27:13 15° W
Cosmos 1980 Rocket 4.5 20:48:31 10° W 20:52:41 20° NW 20:56:53 10° NNE
CENTAUR R/B 3.9 20:46:22 10° NW 20:53:17 39° NNE 20:53:17 39° NNE
USA 215 4.4 21:29:24 37° NW 21:29:24 37° NW 21:33:04 10° WNW
Cosmos 2278 Rocket 4.4 21:26:48 10° NNW 21:28:27 20° NNW 21:28:27 20° NNW
